Weather History for KDDC - June, 2013

Change the Weather History Date:

Sunday, June 23, 2013

  Actual Average Record
Temperature  
Mean Temperature 85 °F -  
Max Temperature 98 °F 89 °F 106 °F (1934)
Min Temperature 72 °F 64 °F 49 °F (1989)
Cooling Degree Days 20    
Growing Degree Days 35 (Base 50)    
Moisture  
Dew Point 57 °F    
Average Humidity 39    
Maximum Humidity 57    
Minimum Humidity 16    
Precipitation  
Precipitation 0.00 in - - ()
Sea Level Pressure  
Sea Level Pressure 29.68 in    
Wind  
Wind Speed 17 mph (South)    
Max Wind Speed 23 mph    
Max Gust Speed 30 mph    
Visibility 9 miles    
Events      
Averages and records for this station are not official NWS values.
T = Trace of Precipitation, MM = Missing Value Source: NWS Daily Summary

Daily Weather History Graph

Daily Weather History Graph

Search for Another Location

Airport or City:

Trip Planner

Search our weather history database for the weather conditions in past years. The results will help you decide how hot, cold, wet, or windy it might be!

Date:

Astronomy

Jun. 23, 2013 Rise Set
Actual Time 6:18 AM CDT 9:05 PM CDT
Civil Twilight 5:47 AM CDT 9:36 PM CDT
Nautical Twilight 5:08 AM CDT 10:16 PM CDT
Astronomical Twilight 4:23 AM CDT 11:00 PM CDT
Moon 9:20 PM CDT (6/23) 6:36 AM CDT (6/23)
Length of Visible Light 15h 49m
Length of Day
14h 46m
Full, 100% of the Moon is Illuminated
Jun 23
Full
Jun 29
Last Quarter
Jul 8
New
Jul 15
First Quarter
Jul 22
Full

Hourly Weather History & Observations

Time (CDT) Temp. Heat Index Dew Point Humidity Pressure Visibility Wind Dir Wind Speed Gust Speed Precip Events Conditions
12:52 AM 78.1 °F - 59.0 °F 52% 29.68 in 10.0 mi SSE 23.0 mph 29.9 mph N/A   Clear
1:52 AM 75.9 °F - 59.0 °F 56% 29.67 in 10.0 mi SSE 20.7 mph 27.6 mph N/A   Clear
2:52 AM 75.0 °F - 59.0 °F 57% 29.67 in 10.0 mi SSE 15.0 mph - N/A   Clear
3:52 AM 75.0 °F - 57.9 °F 55% 29.66 in 10.0 mi South 13.8 mph 21.9 mph N/A   Clear
4:52 AM 73.9 °F - 55.9 °F 53% 29.66 in 10.0 mi South 12.7 mph - N/A   Clear
5:52 AM 73.9 °F - 55.9 °F 53% 29.66 in 10.0 mi South 12.7 mph - N/A   Clear
6:52 AM 72.0 °F - 55.9 °F 57% 29.68 in 10.0 mi South 11.5 mph - N/A   Clear
7:52 AM 75.9 °F - 57.0 °F 52% 29.67 in 9.0 mi South 15.0 mph 23.0 mph N/A   Clear
8:52 AM 81.0 °F 81.1 °F 57.9 °F 45% 29.70 in 9.0 mi South 15.0 mph 23.0 mph N/A   Clear
9:52 AM 82.9 °F 82.6 °F 57.9 °F 42% 29.70 in 8.0 mi SW 15.0 mph 25.3 mph N/A   Clear
10:52 AM 87.1 °F 86.5 °F 59.0 °F 39% 29.69 in 9.0 mi South 16.1 mph 25.3 mph N/A   Clear
11:52 AM 90.0 °F 88.8 °F 57.9 °F 34% 29.69 in 9.0 mi South 10.4 mph 19.6 mph N/A   Clear
12:52 PM 93.0 °F 91.7 °F 57.0 °F 30% 29.70 in 9.0 mi South 13.8 mph 20.7 mph N/A   Clear
1:52 PM 95.0 °F 93.4 °F 55.9 °F 27% 29.68 in 9.0 mi South 17.3 mph 21.9 mph N/A   Clear
2:52 PM 96.1 °F 93.8 °F 54.0 °F 24% 29.68 in 10.0 mi South 17.3 mph 25.3 mph N/A   Clear
3:52 PM 97.0 °F 95.0 °F 55.0 °F 24% 29.66 in 10.0 mi SSE 19.6 mph 27.6 mph N/A   Clear
4:52 PM 95.0 °F 93.0 °F 55.0 °F 26% 29.67 in 10.0 mi SSE 21.9 mph 29.9 mph N/A   Clear
5:52 PM 93.9 °F 92.6 °F 57.0 °F 29% 29.67 in 9.0 mi SSE 21.9 mph 29.9 mph N/A   Clear
6:52 PM 91.9 °F 90.6 °F 57.0 °F 31% 29.67 in 9.0 mi South 19.6 mph 26.5 mph N/A   Clear
7:52 PM 90.0 °F 89.1 °F 59.0 °F 35% 29.68 in 9.0 mi South 21.9 mph - N/A   Clear
8:52 PM 86.0 °F 86.1 °F 61.0 °F 43% 29.69 in 8.0 mi SSE 13.8 mph - N/A   Clear
9:52 PM 82.9 °F 83.3 °F 61.0 °F 47% 29.70 in 10.0 mi SSE 12.7 mph - N/A   Clear
10:52 PM 81.0 °F 81.3 °F 59.0 °F 47% 29.72 in 10.0 mi SSE 15.0 mph - N/A   Clear
11:52 PM 80.1 °F 80.0 °F 54.0 °F 40% 29.71 in 10.0 mi SSE 15.0 mph - N/A   Clear